Weather History for Cortez, CO

Change the Weather History Date:

Saturday, January 4, 2014

  Actual Average Record
Temperature  
Mean Temperature 26 °F 27 °F  
Max Temperature 41 °F 41 °F 50 °F (2003)
Min Temperature 10 °F 14 °F -8 °F (2013)
Degree Days  
Heating Degree Days 39 38  
Month to date heating degree days 140 152  
Since 1 July heating degree days 2819 2810  
Cooling Degree Days 0 0  
Month to date cooling degree days 0 0  
Year to date cooling degree days 0 0  
Moisture  
Dew Point 11 °F    
Average Humidity 58    
Maximum Humidity 88    
Minimum Humidity 27    
Precipitation  
Precipitation 0.00 in 0.04 in 0.27 in (2005)
Month to date precipitation 0.00 0.16  
Year to date precipitation 0.00 0.16  
Sea Level Pressure  
Sea Level Pressure 29.97 in    
Wind  
Wind Speed 9 mph (NNE)    
Max Wind Speed 28 mph    
Max Gust Speed 38 mph    
Visibility 10 miles    
Events      
T = Trace of Precipitation, MM = Missing Value Source: NWS Daily Summary

Daily Weather History Graph

Daily Weather History Graph

Search for Another Location

Airport:

Trip Planner

Search our weather history database for the weather conditions in past years. The results will help you decide how hot, cold, wet, or windy it might be!

Date:

Astronomy

Jan. 04, 2014 Rise Set
Actual Time 7:28 AM MST 5:10 PM MST
Civil Twilight 7:00 AM MST 5:39 PM MST
Nautical Twilight 6:27 AM MST 6:11 PM MST
Astronomical Twilight 5:55 AM MST 6:43 PM MST
Moon 9:41 AM MST (1/4) 9:27 PM MST (1/4)
Length of Visible Light 10h 39m
Length of Day
9h 41m
Waxing Crescent, 16% of the Moon is Illuminated
Jan 4
Waxing Crescent
Jan 7
First Quarter
Jan 15
Full
Jan 23
Last Quarter
Jan 30
New

Hourly Weather History & Observations

Time (MST) Temp. Windchill Dew Point Humidity Pressure Visibility Wind Dir Wind Speed Gust Speed Precip Events Conditions
12:53 AM 19.0 °F 13.9 °F 12.0 °F 74% 29.88 in 10.0 mi Variable 3.5 mph - N/A   Clear
1:53 AM 19.9 °F 12.1 °F 12.0 °F 71% 29.87 in 10.0 mi East 5.8 mph - N/A   Clear
2:53 AM 16.0 °F 7.4 °F 10.9 °F 81% 29.88 in 10.0 mi East 5.8 mph - N/A   Clear
3:53 AM 16.0 °F 6.3 °F 10.9 °F 81% 29.88 in 10.0 mi Variable 6.9 mph - N/A   Clear
4:53 AM 15.1 °F 7.7 °F 10.9 °F 84% 29.87 in 10.0 mi ESE 4.6 mph - N/A   Clear
5:53 AM 16.0 °F 7.4 °F 10.9 °F 81% 29.92 in 10.0 mi East 5.8 mph - N/A   Clear
6:53 AM 16.0 °F 6.3 °F 12.0 °F 84% 29.94 in 10.0 mi NE 6.9 mph - N/A   Clear
7:53 AM 15.1 °F - 10.9 °F 84% 29.94 in 10.0 mi Calm Calm - N/A   Clear
8:53 AM 28.9 °F 22.8 °F 17.1 °F 61% 29.90 in 10.0 mi NNE 5.8 mph - N/A   Clear
9:53 AM 39.0 °F - 19.0 °F 45% 29.86 in 10.0 mi Calm Calm - N/A   Scattered Clouds
10:53 AM 41.0 °F 33.9 °F 18.0 °F 40% 29.85 in 10.0 mi West 12.7 mph 20.7 mph N/A   Overcast
11:53 AM 39.0 °F 27.8 °F 19.9 °F 46% 29.86 in 10.0 mi NNW 26.5 mph 33.4 mph N/A   Overcast
12:53 PM 36.0 °F 23.9 °F 18.0 °F 48% 29.89 in 10.0 mi NNW 25.3 mph 33.4 mph N/A   Overcast
1:53 PM 36.0 °F 26.7 °F 10.9 °F 36% 29.91 in 10.0 mi NNW 15.0 mph 31.1 mph N/A   Overcast
2:53 PM 35.1 °F 24.8 °F 5.0 °F 28% 29.97 in 10.0 mi NNW 17.3 mph 33.4 mph N/A   Overcast
3:53 PM 34.0 °F 23.0 °F 8.1 °F 34% 30.00 in 10.0 mi NNW 18.4 mph 28.8 mph N/A   Clear
4:53 PM 30.0 °F 19.1 °F 3.0 °F 32% 30.05 in 10.0 mi NNW 15.0 mph 26.5 mph N/A   Clear
5:53 PM 27.0 °F 16.7 °F 9.0 °F 47% 30.10 in 10.0 mi NNW 11.5 mph - N/A   Clear
6:53 PM 24.1 °F 16.0 °F 9.0 °F 53% 30.14 in 10.0 mi NW 6.9 mph - N/A   Partly Cloudy
7:53 PM 24.1 °F 14.4 °F 7.0 °F 48% 30.15 in 10.0 mi NW 9.2 mph - N/A   Clear
8:53 PM 18.0 °F 11.1 °F 7.0 °F 62% 30.14 in 10.0 mi North 4.6 mph - N/A   Clear
9:53 PM 18.0 °F 9.8 °F 6.1 °F 60% 30.11 in 10.0 mi East 5.8 mph - N/A   Clear
10:53 PM 12.0 °F 4.1 °F 5.0 °F 73% 30.13 in 10.0 mi ENE 4.6 mph - N/A   Clear
11:53 PM 10.0 °F -1.9 °F 3.9 °F 76% 30.15 in 10.0 mi East 8.1 mph - N/A   Clear